[Iaude] MPEC R16: 2017 QO35 [a=1.19,e=0.04,i=24.7,H=23.5]

mpec at mpcdb1.cfa.harvard.edu mpec at mpcdb1.cfa.harvard.edu
Sat Sep 2 18:11:17 EDT 2017


M.P.E.C. 2017-R16                                Issued 2017 Sept. 2, 22:08 UT
 
     The Minor Planet Electronic Circulars contain information on unusual
         minor planets and routine data on comets.  They are published
    on behalf of Division F of the International Astronomical Union by the
          Minor Planet Center, Smithsonian Astrophysical Observatory,
                          Cambridge, MA 02138, U.S.A.

             Prepared using the Tamkin Foundation Computer Network

                              MPC at CFA.HARVARD.EDU
            URL http://www.minorplanetcenter.net/    ISSN 1523-6714


                                   2017 QO35
 
Observations:
     K17Q35O* C2017 08 31.36962 22 58 55.19 +16 08 46.5          20.2 VqER016G96
     K17Q35O  C2017 08 31.37384 22 58 55.30 +16 08 09.5          20.4 VqER016G96
     K17Q35O  C2017 08 31.37804 22 58 55.42 +16 07 33.4                qER016G96
     K17Q35O  C2017 08 31.38226 22 58 55.50 +16 06 56.1          21.5 VqER016G96
     K17Q35O  C2017 08 31.42474 22 58 56.70 +16 00 46.5          21.3 VqER016G96
     K17Q35O  C2017 08 31.42549 22 58 56.78 +16 00 39.7          20.8 VqER016G96
     K17Q35O  C2017 08 31.42625 22 58 56.79 +16 00 33.6          20.4 VqER016G96
     K17Q35O  C2017 08 31.42701 22 58 56.79 +16 00 27.1          20.1 VqER016G96
     K17Q35O  C2017 08 31.42763 22 58 56.84 +16 00 21.5          20.7 VqER016G96
     K17Q35O  C2017 08 31.42888 22 58 56.89 +16 00 10.6          20.8 VqER016G96
     K17Q35O  C2017 08 31.43020 22 58 56.93 +15 59 59.5          20.6 VqER016G96
     K17Q35O  C2017 08 31.43158 22 58 56.97 +15 59 47.1          20.6 VqER016G96
     K17Q35O  C2017 08 31.45847222 58 57.75 +15 55 50.4          20.6 GUER016H01
     K17Q35O  C2017 08 31.46688422 58 58.05 +15 54 36.9          20.4 GUER016H01
     K17Q35O  C2017 08 31.47332622 58 58.27 +15 53 40.6          20.9 GUER016H01
     K17Q35O  C2017 08 31.48168622 58 58.57 +15 52 27.4          20.4 GUER016H01
     K17Q35O  C2017 09 01.27633922 59 39.20 +13 55 49.7          20.9 GUER016H01
     K17Q35O  C2017 09 01.28150422 59 39.33 +13 55 03.6          20.4 GUER016H01
     K17Q35O  C2017 09 01.28981822 59 39.56 +13 53 49.3          20.4 GUER016H01
     K17Q35O  C2017 09 01.29997522 59 39.83 +13 52 18.6          20.6 GUER016H01
     K17Q35O  C2017 09 02.38355 23 00 28.69 +11 07 49.8          21.3 VqER016G96
     K17Q35O  C2017 09 02.38456 23 00 28.84 +11 07 39.9                qER016G96
     K17Q35O  C2017 09 02.38557 23 00 28.74 +11 07 30.4                qER016G96
     K17Q35O  C2017 09 02.38665 23 00 28.79 +11 07 19.3                qER016G96
 
Observer details:
G96 Mt. Lemmon Survey.  Observers R. G. Matheny, J. A. Johnson.  Measurers
    E. J. Christensen, D. C. Fuls, A. R. Gibbs, A. D. Grauer, J. A. Johnson,
    R. A. Kowalski, S. M. Larson, G. J. Leonard, R. G. Matheny, R. L. Seaman,
    F. C. Shelly.  1.5-m reflector + 10K CCD.
H01 Magdalena Ridge Observatory, Socorro.  Observers W. H. Ryan, E. V. Ryan.
    Measurer W. H. Ryan.  2.4-m f/8.9 reflector + CCD.
 
Orbital elements:
2017 QO35                                                Earth MOID = 0.1487 AU
Epoch 2017 Sept. 4.0 TT = JDT 2458000.5                 MPC
M  28.36910              (2000.0)            P               Q
n   0.75502069     Peri.  145.73854     +0.67612774     +0.72961912
a   1.1944376      Node   165.82633     -0.73421709     +0.67882334
e   0.0378654      Incl.   24.74767     -0.06145361     -0.08279382
P   1.31           H   23.5           G   0.15           U   8
Residuals in seconds of arc
170831 G96  0.2+  0.5+    170831 G96  0.0   0.1-    170901 H01  0.0   0.0
170831 G96  0.1+  0.1+    170831 G96  0.2+  0.1-    170901 H01  0.1-  0.0
170831 G96  0.2+  0.5+    170831 G96  0.2+  0.3+    170901 H01  0.0   0.0
170831 G96  0.3-  0.2-    170831 G96  0.1+  0.1-    170901 H01  0.1+  0.1+
170831 G96  0.7-  0.3-    170831 H01  0.2+  0.1-    170902 G96  0.5-  0.7+
170831 G96  0.1+  0.6-    170831 H01  0.2+  0.0     170902 G96  1.3+  0.2+
170831 G96  0.1-  0.0     170831 H01  0.1+  0.0     170902 G96  0.6-  0.1+
170831 G96  0.4-  0.1+    170831 H01  0.0   0.0     170902 G96  0.3-  1.0-

Ephemeris:
2017 QO35                a,e,i = 1.19, 0.04, 25                  q = 1.1492
Date    TT    R. A. (2000) Decl.     Delta      r     Elong.  Phase     V
2017 08 03    22 32 01.2 +49 34 40   0.3000  1.1493   109.3    56.4    23.2
...
2017 08 18    22 47 44.5 +39 14 48   0.2144  1.1510   125.8    45.5    22.2
...
2017 08 26    22 54 39.5 +27 34 56   0.1760  1.1526   140.9    33.5    21.4
...
2017 09 01    22 59 25.6 +14 37 14   0.1562  1.1542   156.5    20.4    20.8
2017 09 02    23 00 12.2 +12 07 09   0.1540  1.1545   159.5    17.8    20.7
2017 09 03    23 00 58.6 +09 32 20   0.1521  1.1547   162.5    15.2    20.6
...
2017 09 09    23 05 36.0 -06 49 46   0.1495  1.1567   178.3     1.5    19.9
...
2017 09 17    23 11 54.2 -26 38 27   0.1681  1.1596   154.9    21.6    21.0
...
2017 10 02    23 26 01.8 -47 19 13   0.2459  1.1661   127.2    43.2    22.5

A. U. Tomatic                (C) Copyright 2017 MPC           M.P.E.C. 2017-R16




More information about the Iaude mailing list